Location: Poughquag
(41.6090°N, 73.6820°W)
Time: 10:47:15
(UTC-04:00)

Transit 4A - Pass Details

Date: 06 June 2020
Orbit: 866 x 978 km, 66.8° (Epoch: 06 July)

Event Time Altitude Azimuth Distance (km) Brightness Sun altitude
Rises 23:04:43 0° 156° (SSE) 3,434 - -20.8°
Reaches altitude 10° 23:08:27 10° 132° (SE) 2,508 - -21.1°
Maximum altitude 23:11:16 14° 102° (ESE) 2,248 - -21.4°
Exits shadow 23:12:16 13° 91° (E) 2,289 9.7 -21.5°
Drops below altitude 10° 23:14:07 10° 73° (ENE) 2,535 10.1 -21.6°
Sets 23:17:53 0° 49° (NE) 3,499 11.1 -21.9°
